Pennock, MN

6:46 AM CST on February 26, 2017 (GMT -0600)
Willmar

Weather History for KBDH - March, 2014

Change the Weather History Date:

Monday, March 3, 2014

  Actual Average (KBBB) Record (KBBB)
Temperature  
Mean Temperature 0 °F -  
Max Temperature 10 °F 33 °F 52 °F (1983)
Min Temperature -11 °F 14 °F -9 °F (2002)
Degree Days  
Heating Degree Days 66    
Moisture  
Dew Point -4 °F    
Average Humidity 71    
Maximum Humidity 79    
Minimum Humidity 66    
Precipitation  
Precipitation 0.00 in - - ()
Sea Level Pressure  
Sea Level Pressure 30.35 in    
Wind  
Wind Speed 5 mph (SE)    
Max Wind Speed 18 mph    
Max Gust Speed 17 mph    
Visibility 10 miles    
Events Snow    
Averages and records for this station are not official NWS values.
T = Trace of Precipitation, MM = Missing Value Source: NWS Daily Summary

Daily Weather History Graph

Daily Weather History Graph

Search for Another Location

Airport or City:

Trip Planner

Search our weather history database for the weather conditions in past years. The results will help you decide how hot, cold, wet, or windy it might be!

Date:

Astronomy

Mar. 03, 2014 Rise Set
Actual Time 6:54 AM CST 6:10 PM CST
Civil Twilight 6:25 AM CST 6:40 PM CST
Nautical Twilight 5:51 AM CST 7:14 PM CST
Astronomical Twilight 5:17 AM CST 7:48 PM CST
Moon 7:55 AM CST (3/3) 9:24 PM CST (3/3)
Length of Visible Light 12h 14m
Length of Day
11h 15m
Waxing Crescent, 8% of the Moon is Illuminated
Mar 3
Waxing Crescent
Mar 8
First Quarter
Mar 16
Full
Mar 23
Last Quarter
Mar 30
New

Hourly Weather History & Observations

Time (CST) Temp. Windchill Dew Point Humidity Pressure Visibility Wind Dir Wind Speed Gust Speed Precip Events Conditions
12:15 AM -9.4 °F - -16.6 °F 71% 30.50 in 10.0 mi Calm Calm - N/A   Scattered Clouds
12:35 AM -9.4 °F - -16.6 °F 71% 30.51 in 10.0 mi Calm Calm - N/A   Scattered Clouds
12:56 AM -11.2 °F - -16.6 °F 77% 30.51 in 10.0 mi Calm Calm - N/A   Overcast
1:15 AM -9.4 °F - -16.6 °F 71% 30.51 in 10.0 mi Calm Calm - N/A   Overcast
1:35 AM -9.4 °F -20.9 °F -14.8 °F 77% 30.51 in 10.0 mi SW 4.6 mph - N/A   Overcast
1:56 AM -7.6 °F -18.8 °F -14.8 °F 71% 30.52 in 10.0 mi WSW 4.6 mph - N/A   Overcast
2:15 AM -5.8 °F -14.5 °F -11.2 °F 77% 30.52 in 10.0 mi WSW 3.5 mph - N/A   Mostly Cloudy
2:35 AM -5.8 °F - -11.2 °F 77% 30.51 in 10.0 mi Calm Calm - N/A   Mostly Cloudy
2:56 AM -5.8 °F - -11.2 °F 77% 30.51 in 10.0 mi Calm Calm - N/A   Scattered Clouds
3:15 AM -5.8 °F - -13.0 °F 71% 30.49 in 10.0 mi Calm Calm - N/A   Scattered Clouds
3:35 AM -5.8 °F - -11.2 °F 77% 30.48 in 10.0 mi Calm Calm - N/A   Mostly Cloudy
3:56 AM -5.8 °F - -11.2 °F 77% 30.48 in 10.0 mi Calm Calm - N/A   Scattered Clouds
4:15 AM -5.8 °F - -11.2 °F 77% 30.48 in 10.0 mi Calm Calm - N/A   Clear
4:35 AM -4.0 °F - -11.2 °F 71% 30.48 in 10.0 mi Calm Calm - N/A   Clear
4:56 AM -4.0 °F - -9.4 °F 78% 30.48 in 10.0 mi Calm Calm - N/A   Clear
5:15 AM -4.0 °F - -9.4 °F 78% 30.48 in 10.0 mi Calm Calm - N/A   Scattered Clouds
5:35 AM -2.2 °F - -9.4 °F 71% 30.47 in 10.0 mi Calm Calm - N/A   Scattered Clouds
5:56 AM -2.2 °F - -9.4 °F 71% 30.47 in 10.0 mi Calm Calm - N/A   Scattered Clouds
6:15 AM -2.2 °F - -9.4 °F 71% 30.46 in 10.0 mi Calm Calm - N/A   Mostly Cloudy
6:35 AM -2.2 °F - -7.6 °F 78% 30.46 in 10.0 mi Calm Calm - N/A   Mostly Cloudy
6:56 AM -2.2 °F -10.4 °F -7.6 °F 78% 30.45 in 10.0 mi ESE 3.5 mph - N/A   Mostly Cloudy
7:15 AM -0.4 °F - -7.6 °F 72% 30.45 in 10.0 mi Calm Calm - N/A   Scattered Clouds
7:35 AM -0.4 °F -8.3 °F -7.6 °F 72% 30.44 in 10.0 mi East 3.5 mph - N/A   Clear
7:56 AM -0.4 °F -10.4 °F -7.6 °F 72% 30.42 in 10.0 mi ESE 4.6 mph - N/A   Clear
8:15 AM -0.4 °F -12.0 °F -7.6 °F 72% 30.42 in 10.0 mi ESE 5.8 mph - N/A   Clear
8:36 AM -0.4 °F -12.0 °F -9.4 °F 66% 30.43 in 10.0 mi SE 5.8 mph - N/A   Clear
8:55 AM -0.4 °F -12.0 °F -7.6 °F 72% 30.42 in 10.0 mi ESE 5.8 mph - N/A   Clear
9:16 AM 1.4 °F -11.3 °F -7.6 °F 66% 30.42 in 10.0 mi SE 6.9 mph - N/A   Clear
9:35 AM 1.4 °F -11.3 °F -7.6 °F 66% 30.41 in 10.0 mi ESE 6.9 mph - N/A   Clear
9:55 AM 1.4 °F -12.5 °F -7.6 °F 66% 30.41 in 10.0 mi SE 8.1 mph - N/A   Clear
10:15 AM 3.2 °F -11.3 °F -5.8 °F 66% 30.41 in 10.0 mi SE 9.2 mph - N/A   Clear
10:35 AM 3.2 °F -10.3 °F -5.8 °F 66% 30.41 in 10.0 mi SSE 8.1 mph - N/A   Clear
10:56 AM 3.2 °F -11.3 °F -4.0 °F 72% 30.40 in 10.0 mi SE 9.2 mph - N/A   Clear
11:15 AM 5.0 °F -10.8 °F -4.0 °F 66% 30.39 in 10.0 mi SE 11.5 mph - N/A   Clear
11:36 AM 6.8 °F -8.6 °F -2.2 °F 67% 30.38 in 10.0 mi SSE 11.5 mph - N/A   Clear
11:55 AM 6.8 °F -9.3 °F -2.2 °F 67% 30.37 in 10.0 mi SSE 12.7 mph 17.3 mph N/A   Clear
12:15 PM 8.6 °F -7.0 °F -0.4 °F 67% 30.37 in 10.0 mi SSE 12.7 mph - N/A   Clear
12:35 PM 8.6 °F -5.5 °F -0.4 °F 67% 30.36 in 10.0 mi SE 10.4 mph - N/A   Clear
12:55 PM 8.6 °F -6.3 °F -0.4 °F 67% 30.35 in 10.0 mi SE 11.5 mph - N/A   Clear
1:15 PM 8.6 °F -5.5 °F -0.4 °F 67% 30.35 in 10.0 mi SSE 10.4 mph 17.3 mph N/A   Clear
1:35 PM 8.6 °F -6.3 °F -0.4 °F 67% 30.34 in 10.0 mi SSE 11.5 mph - N/A   Clear
1:55 PM 10.4 °F -4.8 °F 1.4 °F 67% 30.33 in 10.0 mi SE 12.7 mph - N/A   Clear
2:15 PM 10.4 °F -2.4 °F 1.4 °F 67% 30.32 in 10.0 mi SSE 9.2 mph - N/A   Clear
2:35 PM 10.4 °F -5.4 °F 1.4 °F 67% 30.32 in 10.0 mi SE 13.8 mph - N/A   Clear
2:55 PM 10.4 °F -5.4 °F 1.4 °F 67% 30.31 in 10.0 mi SE 13.8 mph - N/A   Scattered Clouds
3:15 PM 10.4 °F -5.4 °F 1.4 °F 67% 30.30 in 10.0 mi SE 13.8 mph - N/A   Clear
3:35 PM 10.4 °F -5.4 °F 1.4 °F 67% 30.28 in 10.0 mi SE 13.8 mph - N/A   Scattered Clouds
3:55 PM 10.4 °F -6.0 °F 1.4 °F 67% 30.27 in 10.0 mi SE 15.0 mph - N/A   Scattered Clouds
4:15 PM 10.4 °F -7.2 °F 1.4 °F 67% 30.26 in 10.0 mi SE 17.3 mph - N/A   Mostly Cloudy
4:35 PM 10.4 °F -6.0 °F 1.4 °F 67% 30.25 in 10.0 mi SE 15.0 mph - N/A   Overcast
4:55 PM 8.6 °F -9.5 °F 1.4 °F 73% 30.24 in 10.0 mi ESE 17.3 mph - N/A   Mostly Cloudy
5:16 PM 8.6 °F -9.5 °F 1.4 °F 73% 30.23 in 10.0 mi ESE 17.3 mph - N/A   Mostly Cloudy
5:35 PM 8.6 °F -10.0 °F -0.4 °F 67% 30.23 in 10.0 mi ESE 18.4 mph - N/A   Mostly Cloudy
5:56 PM 8.6 °F -9.5 °F -0.4 °F 67% 30.22 in 10.0 mi ESE 17.3 mph - N/A   Clear
6:15 PM 8.6 °F -7.0 °F -0.4 °F 67% 30.23 in 10.0 mi ESE 12.7 mph - N/A   Clear
6:36 PM 8.6 °F -7.0 °F -0.4 °F 67% 30.23 in 10.0 mi SE 12.7 mph - N/A   Scattered Clouds
6:55 PM 8.6 °F -7.0 °F -0.4 °F 67% 30.23 in 10.0 mi SE 12.7 mph - N/A   Scattered Clouds
7:16 PM 8.6 °F -6.3 °F -0.4 °F 67% 30.23 in 10.0 mi SE 11.5 mph - N/A   Scattered Clouds
7:35 PM 8.6 °F -6.3 °F -0.4 °F 67% 30.23 in 7.0 mi SE 11.5 mph - N/A Snow Light Snow
7:56 PM 8.6 °F -6.3 °F 1.4 °F 73% 30.22 in 7.0 mi SE 11.5 mph - N/A Snow Light Snow
8:15 PM 8.6 °F -6.3 °F 1.4 °F 73% 30.22 in 4.0 mi SE 11.5 mph - N/A Snow Light Snow
8:35 PM 8.6 °F -7.0 °F 1.4 °F 73% 30.21 in 7.0 mi SE 12.7 mph - N/A Snow Light Snow
8:56 PM 8.6 °F -7.0 °F 1.4 °F 73% 30.19 in 7.0 mi SE 12.7 mph - N/A Snow Light Snow
9:15 PM 8.6 °F -7.7 °F 1.4 °F 73% 30.18 in 5.0 mi SE 13.8 mph - N/A Snow Light Snow
9:35 PM 8.6 °F -7.0 °F 1.4 °F 73% 30.17 in 10.0 mi SE 12.7 mph - N/A   Overcast
9:55 PM 8.6 °F -7.0 °F 1.4 °F 73% 30.18 in 10.0 mi SE 12.7 mph - N/A   Overcast
10:15 PM 8.6 °F -7.7 °F 1.4 °F 73% 30.18 in 10.0 mi SE 13.8 mph - N/A   Overcast
10:35 PM 8.6 °F -5.5 °F 3.2 °F 79% 30.20 in 10.0 mi SE 10.4 mph - N/A   Overcast
10:55 PM 8.6 °F -4.7 °F 3.2 °F 79% 30.19 in 5.0 mi SE 9.2 mph - N/A   Haze
11:16 PM 8.6 °F -3.7 °F 3.2 °F 79% 30.19 in 10.0 mi SE 8.1 mph - N/A   Overcast
11:36 PM 8.6 °F -3.7 °F 3.2 °F 79% 30.18 in 7.0 mi ESE 8.1 mph - N/A   Overcast
11:55 PM 8.6 °F -4.7 °F 3.2 °F 79% 30.17 in 10.0 mi ESE 9.2 mph - N/A   Overcast